Skip Page Navigation
NASA JPL Caltech
NASA Logo - Jet Propulsion Laboratory + View the NASA Portal
+ Center for Near-Earth Object Studies
JPL Home Earth Solar System Stars & Galaxies Technology
JPL Solar System Dynamics
BODIES ORBITS EPHEMERIDES TOOLS PHYSICAL DATA DISCOVERY FAQ SITE MAP
JPL Small-Body Database Browser
Search: [ help ]  
65686 (1990 TN8)
Classification: Main-belt Asteroid          SPK-ID: 2065686
Ephemeris | Orbit Diagram | Orbital Elements | Mission Design | Physical Parameters | Discovery Circumstances | Close-Approach Data ]

[ show orbit diagram ]
Orbital Elements at Epoch 2459000.5 (2020-May-31.0) TDB
Reference: JPL 24 (heliocentric ecliptic J2000)
 Element Value Uncertainty (1-sigma)   Units 
e .2153639428388753 4.7905e-08  
a 3.043540136059071 1.8149e-08 au
q 2.388071332169023 1.4251e-07 au
i 4.22639068880532 5.4695e-06 deg
node 186.6451200013447 5.3663e-05 deg
peri 167.79322483212 5.4746e-05 deg
M 214.4326129269085 1.4124e-05 deg
tp 2459784.703114081768
(2022-Jul-24.20311408)
8.1104e-05 TDB
period 1939.398149172541
5.31
1.7347e-05
4.749e-08
d
yr
n .1856245970707958 1.6603e-09 deg/d
Q 3.69900893994912 2.2057e-08 au
  Orbit Determination Parameters
   # obs. used (total)      1140  
   data-arc span      10808 days (29.59 yr)  
   first obs. used      1990-09-22  
   last obs. used      2020-04-25  
   planetary ephem.      DE431  
   SB-pert. ephem.      SB431-N16  
   condition code      0  
   norm. resid. RMS      .53285  
   source      ORB  
   producer      Otto Matic  
   solution date      2020-May-20 12:53:31  

Additional Information
 Earth MOID = 1.38357 au 
 Jupiter MOID = 1.75514 au 
 T_jup = 3.199 
[ show covariance matrix ]

Ephemeris | Orbit Diagram | Orbital Elements | Mission Design | Physical Parameters | Discovery Circumstances | Close-Approach Data ]

Physical Parameter Table
Parameter Symbol Value Units Sigma Reference Notes
absolute magnitude H 14.1   n/a MPO468580  

65686 (1990 TN8)          Discovered 1990-Oct-14 by Mrkos, A. at Klet
Reference: 20030910/Numbers.arcLast Updated: 2004-04-19

[ show close-approach data ]
Alternate Designations
 1990 TN8 = 1990 SX26 = 1990 UU12 = 2001 QT77 
Ephemeris | Orbit Diagram | Orbital Elements | Mission Design | Physical Parameters | Discovery Circumstances | Close-Approach Data ]
ABOUT SSD CREDITS/AWARDS PRIVACY/COPYRIGHT GLOSSARY LINKS
FirstGov 2020-Jul-03 12:05 UT
(server date/time)  
NASA Home Page
Site Manager:   Ryan S. Park
Webmaster  Alan B. Chamberlin